Tracking 31027 objects as of 19-Jul-2025
HD Live streaming from Space Station
objects crossing your sky now

EKRAN 10

Track EKRAN 10 now!
EKRAN 10 is classified as:


NORAD ID: 13878
Int'l Code: 1983-016A
Perigee: 37,197.5 km
Apogee: 37,462.5 km
Inclination: 11.1 °
Period: 1,515.3 minutes
Semi major axis: 43700 km
RCS: 6.5767 m2 (large)
Launch date: March 12, 1983
Source: Commonwealth of Independent States (former USSR) (CIS)
Launch site: TYURATAM MISSILE AND SPACE COMPLEX (TTMTR)
Your satellite tracking list
ST5-A
Track 1 satellite(s)




NASA's NSSDC Master Catalog

Two Line Element Set (TLE):
1 13878U 83016A   25199.07197625 -.00000123  00000-0  00000-0 0  9995
2 13878  11.0981 312.7269 0030320  19.3587 341.4794  0.95031220116002
Source of the keplerian elements: AFSPC